| time (UTC) | temp F | wind direction | speed MPH | gust MPH | rain 1hr in | rain 24hr in | rain mn in | humidity % | barometer mb |
| 20260831145028 | 57 | 0.0 | 0.0 | 0.00 | 0.00 | 0.00 | 87 | ||
| 20260831144054 | 56 | 0.0 | 0.0 | 0.00 | 0.00 | 0.00 | 89 | ||
| 20260831143025 | 55 | 0.0 | 0.0 | 0.00 | 0.00 | 0.00 | 93 | ||
| 20260831142033 | 54 | 0.0 | 0.0 | 0.00 | 0.00 | 0.00 | 94 | ||
| 20260831141023 | 53 | 0.0 | 0.0 | 0.00 | 0.00 | 0.00 | 95 | ||
| 20260831140031 | 53 | 0.0 | 0.0 | 0.00 | 0.00 | 0.00 | 96 | ||
| 20260831135020 | 53 | 0.0 | 0.0 | 0.00 | 0.00 | 0.00 | 97 | ||
| 20260831134048 | 52 | 0.0 | 0.0 | 0.00 | 0.00 | 0.00 | 97 | ||
| 20260831133036 | 53 | 0.0 | 0.0 | 0.00 | 0.00 | 0.00 | 97 | ||
| 20260831132026 | 53 | 0.0 | 0.0 | 0.00 | 0.00 | 0.00 | 97 | ||
| 20260831131054 | 53 | 0.0 | 0.0 | 0.00 | 0.00 | 0.00 | 97 | ||
| 20260831130026 | 52 | 0.0 | 0.0 | 0.00 | 0.00 | 0.00 | 97 | ||
| 20260831125034 | 52 | 0.0 | 0.0 | 0.00 | 0.00 | 0.00 | 96 | ||
| 20260831124021 | 52 | 0.0 | 0.0 | 0.00 | 0.00 | 0.00 | 95 | ||
| 20260831123049 | 52 | 0.0 | 0.0 | 0.00 | 0.00 | 0.00 | 95 | ||
| 20260831122037 | 53 | 0.0 | 0.0 | 0.00 | 0.00 | 0.00 | 95 | ||
| 20260831121026 | 53 | 0.0 | 0.0 | 0.00 | 0.00 | 0.00 | 95 | ||
| 20260831120034 | 53 | 0.0 | 0.0 | 0.00 | 0.00 | 0.00 | 95 | ||
| 20260831115026 | 53 | 0.0 | 0.0 | 0.00 | 0.00 | 0.00 | 95 | ||
| 20260831114052 | 54 | 0.0 | 0.0 | 0.00 | 0.00 | 0.00 | 95 | ||
| 20260831113021 | 54 | 0.0 | 0.0 | 0.00 | 0.00 | 0.00 | 95 | ||
| 20260831112030 | 53 | 0.0 | 0.0 | 0.00 | 0.00 | 0.00 | 95 | ||
| 20260831111037 | 53 | 0.0 | 0.0 | 0.00 | 0.00 | 0.00 | 93 | ||
| 20260831110027 | 54 | 293 | 0.0 | 2.0 | 0.00 | 0.00 | 0.00 | 93 | |
| 20260831105035 | 54 | 0.0 | 0.0 | 0.00 | 0.00 | 0.00 | 93 | ||
| 20260831104024 | 54 | 270 | 0.0 | 2.0 | 0.00 | 0.00 | 0.00 | 92 | |
| 20260831103032 | 55 | 0.0 | 0.0 | 0.00 | 0.00 | 0.00 | 91 | ||
| 20260831102021 | 55 | 293 | 0.0 | 2.0 | 0.00 | 0.00 | 0.00 | 91 | |
| 20260831101030 | 55 | 293 | 0.0 | 2.0 | 0.00 | 0.00 | 0.00 | 91 | |
| 20260831100019 | 55 | 270 | 1.0 | 2.0 | 0.00 | 0.00 | 0.00 | 91 | |
| 20260831095027 | 55 | 248 | 1.0 | 2.0 | 0.00 | 0.00 | 0.00 | 91 | |
| 20260831094035 | 55 | 45 | 0.0 | 1.0 | 0.00 | 0.00 | 0.00 | 90 | |
| 20260831093024 | 55 | 0.0 | 0.0 | 0.00 | 0.00 | 0.00 | 89 | ||
| 20260831092053 | 56 | 270 | 0.0 | 1.0 | 0.00 | 0.00 | 0.00 | 88 | |
| 20260831091102 | 56 | 268 | 1.0 | 2.0 | 0.00 | 0.00 | 0.00 | 88 | |
| 20260831090110 | 56 | 240 | 1.0 | 2.0 | 0.00 | 0.00 | 0.00 | 88 | |
| 20260831085019 | 56 | 0.0 | 0.0 | 0.00 | 0.00 | 0.00 | 88 | ||
| 20260831084029 | 56 | 0.0 | 0.0 | 0.00 | 0.00 | 0.00 | 87 | ||
| 20260831083036 | 56 | 0.0 | 0.0 | 0.00 | 0.00 | 0.00 | 86 | ||
| 20260831082025 | 57 | 0.0 | 0.0 | 0.00 | 0.00 | 0.00 | 85 | ||
| 20260831081034 | 57 | 0.0 | 0.0 | 0.00 | 0.00 | 0.00 | 84 | ||
| 20260831080022 | 57 | 0.0 | 0.0 | 0.00 | 0.00 | 0.00 | 83 | ||
| 20260831075051 | 58 | 284 | 1.0 | 2.0 | 0.00 | 0.00 | 0.00 | 82 | |
| 20260831074020 | 58 | 256 | 1.0 | 2.0 | 0.00 | 0.00 | 0.00 | 81 | |
| 20260831073028 | 59 | 256 | 1.0 | 2.0 | 0.00 | 0.00 | 0.00 | 81 | |
| 20260831072055 | 59 | 283 | 1.0 | 3.0 | 0.00 | 0.00 | 0.00 | 81 | |
| 20260831071027 | 59 | 0.0 | 0.0 | 0.00 | 0.00 | 0.00 | 80 | ||
| 20260831070034 | 59 | 293 | 0.0 | 1.0 | 0.00 | 0.00 | 0.00 | 80 | |
| 20260831065023 | 59 | 0.0 | 0.0 | 0.00 | 0.00 | 0.00 | 79 | ||
| 20260831064031 | 59 | 0.0 | 0.0 | 0.00 | 0.00 | 0.00 | 78 | ||
| 20260831063040 | 60 | 14 | 0.0 | 1.0 | 0.00 | 0.00 | 0.00 | 77 | |
| 20260831062028 | 60 | 326 | 1.0 | 1.0 | 0.00 | 0.00 | 0.00 | 75 | |
| 20260831061059 | 60 | 0.0 | 0.0 | 0.00 | 0.00 | 0.00 | 75 | ||
| 20260831060026 | 61 | 273 | 0.0 | 2.0 | 0.00 | 0.00 | 0.00 | 74 | |
| 20260831055035 | 62 | 273 | 1.0 | 2.0 | 0.00 | 0.00 | 0.00 | 71 | |
| 20260831054023 | 62 | 283 | 2.0 | 4.0 | 0.00 | 0.00 | 0.00 | 70 | |
| 20260831053031 | 63 | 277 | 2.0 | 3.0 | 0.00 | 0.00 | 0.00 | 69 | |
| 20260831052020 | 63 | 297 | 2.0 | 4.0 | 0.00 | 0.00 | 0.00 | 68 | |
| 20260831051029 | 64 | 276 | 1.0 | 3.0 | 0.00 | 0.00 | 0.00 | 67 | |
| 20260831050036 | 64 | 291 | 3.0 | 5.0 | 0.00 | 0.00 | 0.00 | 66 | |
| 20260831045027 | 65 | 289 | 3.0 | 6.0 | 0.00 | 0.00 | 0.00 | 65 | |
| 20260831044114 | 65 | 335 | 3.0 | 6.0 | 0.00 | 0.00 | 0.00 | 63 | |
| 20260831043024 | 65 | 290 | 3.0 | 5.0 | 0.00 | 0.00 | 0.00 | 63 | |
| 20260831042031 | 66 | 314 | 3.0 | 6.0 | 0.00 | 0.00 | 0.00 | 62 | |
| 20260831041041 | 66 | 328 | 2.0 | 3.0 | 0.00 | 0.00 | 0.00 | 61 | |
| 20260831040029 | 66 | 339 | 2.0 | 4.0 | 0.00 | 0.00 | 0.00 | 60 | |
| 20260831035037 | 67 | 298 | 3.0 | 4.0 | 0.00 | 0.00 | 0.00 | 59 | |
| 20260831034026 | 67 | 346 | 3.0 | 4.0 | 0.00 | 0.00 | 0.00 | 57 | |
| 20260831033034 | 68 | 304 | 4.0 | 8.0 | 0.00 | 0.00 | 0.00 | 56 | |
| 20260831032024 | 68 | 28 | 5.0 | 9.0 | 0.00 | 0.00 | 0.00 | 56 | |
| 20260831031031 | 69 | 12 | 6.0 | 7.0 | 0.00 | 0.00 | 0.00 | 55 | |
| 20260831030021 | 70 | 11 | 4.0 | 7.0 | 0.00 | 0.00 | 0.00 | 55 | |
| 20260831025029 | 71 | 26 | 6.0 | 9.0 | 0.00 | 0.00 | 0.00 | 54 | |
| 20260831024037 | 71 | 350 | 6.0 | 10.0 | 0.00 | 0.00 | 0.00 | 53 | |
| 20260831023026 | 72 | 356 | 6.0 | 9.0 | 0.00 | 0.00 | 0.00 | 53 | |
| 20260831022054 | 72 | 43 | 5.0 | 8.0 | 0.00 | 0.00 | 0.00 | 52 | |
| 20260831021043 | 73 | 355 | 5.0 | 8.0 | 0.00 | 0.00 | 0.00 | 51 | |
| 20260831020031 | 73 | 359 | 7.0 | 12.0 | 0.00 | 0.00 | 0.00 | 51 | |
| 20260831015021 | 74 | 343 | 6.0 | 10.0 | 0.00 | 0.00 | 0.00 | 50 | |
| 20260831014028 | 74 | 357 | 6.0 | 7.0 | 0.00 | 0.00 | 0.00 | 50 | |
| 20260831013036 | 74 | 346 | 6.0 | 10.0 | 0.00 | 0.00 | 0.00 | 49 | |
| 20260831012025 | 74 | 359 | 6.0 | 7.0 | 0.00 | 0.00 | 0.00 | 49 | |
| 20260831011034 | 75 | 316 | 5.0 | 7.0 | 0.00 | 0.00 | 0.00 | 48 | |
| 20260831010023 | 75 | 323 | 7.0 | 12.0 | 0.00 | 0.00 | 0.00 | 48 | |
| 20260831005030 | 75 | 7 | 6.0 | 9.0 | 0.00 | 0.00 | 0.00 | 47 | |
| 20260831004020 | 75 | 287 | 5.0 | 13.0 | 0.00 | 0.00 | 0.00 | 47 | |
| 20260831003027 | 75 | 337 | 7.0 | 10.0 | 0.00 | 0.00 | 0.00 | 47 | |
| 20260831002038 | 76 | 314 | 7.0 | 11.0 | 0.00 | 0.00 | 0.00 | 47 | |
| 20260831001046 | 75 | 302 | 6.0 | 10.0 | 0.00 | 0.00 | 0.00 | 47 | |
| 20260831000035 | 75 | 309 | 6.0 | 11.0 | 0.00 | 0.00 | 0.00 | 47 | |
| 20260830235042 | 76 | 274 | 6.0 | 9.0 | 0.00 | 0.00 | 0.00 | 46 | |
| 20260830234030 | 76 | 340 | 5.0 | 9.0 | 0.00 | 0.00 | 0.00 | 45 | |
| 20260830233020 | 76 | 260 | 5.0 | 9.0 | 0.00 | 0.00 | 0.00 | 45 | |
| 20260830232027 | 76 | 297 | 5.0 | 10.0 | 0.00 | 0.00 | 0.00 | 45 | |
| 20260830231035 | 75 | 27 | 9.0 | 13.0 | 0.00 | 0.00 | 0.00 | 45 | |
| 20260830230026 | 75 | 323 | 7.0 | 11.0 | 0.00 | 0.00 | 0.00 | 46 | |
| 20260830225032 | 75 | 276 | 4.0 | 7.0 | 0.00 | 0.00 | 0.00 | 45 | |
| 20260830224021 | 76 | 13 | 7.0 | 11.0 | 0.00 | 0.00 | 0.00 | 43 | |
| 20260830223029 | 76 | 333 | 6.0 | 8.0 | 0.00 | 0.00 | 0.00 | 43 | |
| 20260830222037 | 76 | 250 | 5.0 | 9.0 | 0.00 | 0.00 | 0.00 | 44 | |
| 20260830221045 | 75 | 2 | 6.0 | 11.0 | 0.00 | 0.00 | 0.00 | 44 | |
| 20260830220053 | 75 | 251 | 7.0 | 11.0 | 0.00 | 0.00 | 0.00 | 44 | |
| 20260830215027 | 75 | 283 | 5.0 | 8.0 | 0.00 | 0.00 | 0.00 | 44 | |
| 20260830214031 | 75 | 276 | 6.0 | 9.0 | 0.00 | 0.00 | 0.00 | 45 | |
| 20260830213020 | 74 | 345 | 5.0 | 8.0 | 0.00 | 0.00 | 0.00 | 45 | |
| 20260830212033 | 74 | 319 | 7.0 | 10.0 | 0.00 | 0.00 | 0.00 | 46 | |
| 20260830211036 | 74 | 31 | 5.0 | 9.0 | 0.00 | 0.00 | 0.00 | 45 | |
| 20260830210027 | 74 | 302 | 8.0 | 10.0 | 0.00 | 0.00 | 0.00 | 45 | |
| 20260830205033 | 74 | 274 | 5.0 | 9.0 | 0.00 | 0.00 | 0.00 | 45 | |
| 20260830204022 | 74 | 279 | 6.0 | 9.0 | 0.00 | 0.00 | 0.00 | 46 | |
| 20260830203049 | 73 | 254 | 5.0 | 9.0 | 0.00 | 0.00 | 0.00 | 46 | |
| 20260830202020 | 72 | 255 | 8.0 | 13.0 | 0.00 | 0.00 | 0.00 | 48 | |
| 20260830201028 | 73 | 263 | 5.0 | 8.0 | 0.00 | 0.00 | 0.00 | 48 | |
| 20260830200036 | 72 | 260 | 6.0 | 9.0 | 0.00 | 0.00 | 0.00 | 49 | |
| 20260830195027 | 71 | 245 | 5.0 | 8.0 | 0.00 | 0.00 | 0.00 | 50 | |
| 20260830194033 | 71 | 348 | 6.0 | 12.0 | 0.00 | 0.00 | 0.00 | 50 | |
| 20260830193022 | 71 | 305 | 6.0 | 9.0 | 0.00 | 0.00 | 0.00 | 50 | |
| 20260830192030 | 70 | 252 | 5.0 | 9.0 | 0.00 | 0.00 | 0.00 | 52 | |
| 20260830191020 | 70 | 252 | 5.0 | 10.0 | 0.00 | 0.00 | 0.00 | 52 | |
| 20260830190027 | 70 | 274 | 5.0 | 7.0 | 0.00 | 0.00 | 0.00 | 52 | |
| 20260830185036 | 70 | 264 | 3.0 | 6.0 | 0.00 | 0.00 | 0.00 | 53 | |
| 20260830184025 | 69 | 342 | 6.0 | 10.0 | 0.00 | 0.00 | 0.00 | 53 | |
| 20260830183033 | 69 | 358 | 6.0 | 8.0 | 0.00 | 0.00 | 0.00 | 54 | |
| 20260830182024 | 68 | 16 | 5.0 | 7.0 | 0.00 | 0.00 | 0.00 | 54 | |
| 20260830181030 | 70 | 256 | 6.0 | 9.0 | 0.00 | 0.00 | 0.00 | 53 | |
| 20260830180020 | 69 | 347 | 4.0 | 7.0 | 0.00 | 0.00 | 0.00 | 56 | |
| 20260830175027 | 67 | 281 | 4.0 | 6.0 | 0.00 | 0.00 | 0.00 | 60 | |
| 20260830174036 | 67 | 264 | 5.0 | 6.0 | 0.00 | 0.00 | 0.00 | 61 | |
| 20260830173044 | 66 | 324 | 5.0 | 7.0 | 0.00 | 0.00 | 0.00 | 63 | |
| 20260830172053 | 67 | 278 | 3.0 | 5.0 | 0.00 | 0.00 | 0.00 | 63 | |
| 20260830171022 | 65 | 255 | 4.0 | 7.0 | 0.00 | 0.00 | 0.00 | 67 | |
| 20260830170030 | 64 | 253 | 4.0 | 6.0 | 0.00 | 0.00 | 0.00 | 67 | |
| 20260830165019 | 64 | 263 | 4.0 | 5.0 | 0.00 | 0.00 | 0.00 | 68 | |
| 20260830164027 | 64 | 261 | 4.0 | 6.0 | 0.00 | 0.00 | 0.00 | 68 | |
| 20260830163035 | 63 | 249 | 3.0 | 5.0 | 0.00 | 0.00 | 0.00 | 69 | |
| 20260830162024 | 63 | 263 | 3.0 | 6.0 | 0.00 | 0.00 | 0.00 | 70 | |
| 20260830161035 | 62 | 293 | 4.0 | 5.0 | 0.00 | 0.00 | 0.00 | 71 | |
| 20260830155029 | 62 | 43 | 2.0 | 4.0 | 0.00 | 0.00 | 0.00 | 71 | |
| 20260830154037 | 62 | 254 | 2.0 | 4.0 | 0.00 | 0.00 | 0.00 | 71 | |
| 20260830153026 | 61 | 229 | 2.0 | 3.0 | 0.00 | 0.00 | 0.00 | 73 | |
| 20260830152035 | 59 | 277 | 2.0 | 3.0 | 0.00 | 0.00 | 0.00 | 77 | |
| 20260830151027 | 58 | 232 | 1.0 | 3.0 | 0.00 | 0.00 | 0.00 | 80 | |
| 20260830150034 | 56 | 287 | 1.0 | 2.0 | 0.00 | 0.00 | 0.00 | 84 |